When you browse on this site, cookies collect data to enhance your experience and personalize the content and advertising you see.
Visit our Privacy Policy to learn more. By continuing to use the site, you agree to this use of cookies and data.
  • In Schweiz
  • Länderverzeichnis
  • Für 7 Tage
  • Wassertemperatur
  • Wetterkarte
  • Widgets
  • user-avatar
    Anmelden

    Stündliche Wetter Grachevka

    Heute, 23 September, Montag

    Zeit Temperatur Niederschläge Wind Luftdruck Luftfeuchtigkeit
    00:00 +1°C° 0 mm 6 m/S 740 mmHg 83%
    01:00 -1°C° 0 mm 6 m/S 740 mmHg 85%
    02:00 -1°C° 0 mm 6 m/S 741 mmHg 86%
    03:00 0°C° 0 mm 5 m/S 741 mmHg 89%
    04:00 0°C° 0 mm 5 m/S 742 mmHg 86%
    05:00 +1°C° 0 mm 5 m/S 742 mmHg 82%
    06:00 +1°C° 0 mm 5 m/S 743 mmHg 79%
    07:00 +2°C° 0 mm 5 m/S 743 mmHg 75%
    08:00 +2°C° 0 mm 6 m/S 744 mmHg 72%
    09:00 +3°C° 0 mm 6 m/S 745 mmHg 67%
    10:00 +4°C° 0 mm 6 m/S 745 mmHg 65%
    11:00 +5°C° 0 mm 6 m/S 745 mmHg 62%
    12:00 +7°C° 0 mm 6 m/S 745 mmHg 60%
    13:00 +7°C° 0 mm 6 m/S 746 mmHg 59%
    14:00 +7°C° 0 mm 6 m/S 746 mmHg 58%
    15:00 +8°C° 0 mm 6 m/S 746 mmHg 57%
    16:00 +7°C° 0 mm 5 m/S 746 mmHg 60%
    17:00 +6°C° 0 mm 5 m/S 746 mmHg 63%
    18:00 +6°C° 0 mm 4 m/S 746 mmHg 65%
    19:00 +5°C° 0 mm 4 m/S 747 mmHg 67%
    20:00 +5°C° 0 mm 4 m/S 747 mmHg 69%
    21:00 +4°C° 0 mm 4 m/S 747 mmHg 70%
    22:00 +3°C° 0 mm 3 m/S 747 mmHg 73%
    23:00 +2°C° 0 mm 3 m/S 748 mmHg 76%

    Morgen, 24 September, Dienstag

    Zeit Temperatur Niederschläge Wind Luftdruck Luftfeuchtigkeit
    00:00 +3°C° 0 mm 2 m/S 748 mmHg 78%
    01:00 +2°C° 0 mm 2 m/S 748 mmHg 78%
    02:00 +2°C° 0 mm 2 m/S 748 mmHg 79%
    03:00 +2°C° 0 mm 2 m/S 748 mmHg 79%
    04:00 +1°C° 0 mm 2 m/S 748 mmHg 80%
    05:00 +1°C° 0 mm 2 m/S 748 mmHg 81%
    06:00 +1°C° 0 mm 2 m/S 748 mmHg 82%
    07:00 +1°C° 0 mm 3 m/S 748 mmHg 76%
    08:00 +2°C° 0 mm 3 m/S 749 mmHg 70%
    09:00 +4°C° 0 mm 4 m/S 749 mmHg 65%
    10:00 +4°C° 0 mm 4 m/S 749 mmHg 62%
    11:00 +5°C° 0 mm 4 m/S 748 mmHg 59%
    12:00 +6°C° 0 mm 4 m/S 748 mmHg 57%
    13:00 +6°C° 0.1 mm 4 m/S 748 mmHg 57%
    14:00 +6°C° 0.1 mm 4 m/S 748 mmHg 58%
    15:00 +6°C° 0.1 mm 4 m/S 748 mmHg 59%
    16:00 +5°C° 0 mm 4 m/S 748 mmHg 61%
    17:00 +5°C° 0 mm 3 m/S 748 mmHg 64%
    18:00 +4°C° 0 mm 3 m/S 748 mmHg 66%
    19:00 +4°C° 0 mm 3 m/S 748 mmHg 70%
    20:00 +4°C° 0 mm 2 m/S 748 mmHg 73%
    21:00 +3°C° 0 mm 2 m/S 748 mmHg 77%
    22:00 +3°C° 0 mm 2 m/S 748 mmHg 80%
    23:00 +2°C° 0 mm 2 m/S 748 mmHg 83%

    übermorgen, 25 September, Mittwoch

    Zeit Temperatur Niederschläge Wind Luftdruck Luftfeuchtigkeit
    00:00 +2°C° 0 mm 2 m/S 748 mmHg 85%
    01:00 +2°C° 0 mm 2 m/S 748 mmHg 87%
    02:00 +1°C° 0 mm 2 m/S 748 mmHg 88%
    03:00 +1°C° 0 mm 2 m/S 749 mmHg 90%
    04:00 +1°C° 0 mm 2 m/S 749 mmHg 91%
    05:00 +1°C° 0 mm 2 m/S 749 mmHg 91%
    06:00 -1°C° 0 mm 2 m/S 749 mmHg 92%
    07:00 +2°C° 0 mm 2 m/S 749 mmHg 86%
    08:00 +3°C° 0 mm 2 m/S 749 mmHg 80%
    09:00 +4°C° 0 mm 2 m/S 749 mmHg 74%
    10:00 +6°C° 0 mm 2 m/S 749 mmHg 68%
    11:00 +7°C° 0 mm 2 m/S 749 mmHg 63%
    12:00 +8°C° 0 mm 3 m/S 749 mmHg 57%
    13:00 +9°C° 0.1 mm 3 m/S 749 mmHg 56%
    14:00 +9°C° 0.1 mm 3 m/S 749 mmHg 55%
    15:00 +9°C° 0.1 mm 3 m/S 749 mmHg 54%
    16:00 +8°C° 0 mm 3 m/S 749 mmHg 59%
    17:00 +8°C° 0 mm 2 m/S 748 mmHg 63%
    18:00 +7°C° 0 mm 2 m/S 748 mmHg 68%
    19:00 +7°C° 0 mm 1 m/S 748 mmHg 69%
    20:00 +7°C° 0 mm 1 m/S 748 mmHg 70%
    21:00 +7°C° 0 mm 1 m/S 749 mmHg 72%
    22:00 +6°C° 0 mm 1 m/S 748 mmHg 72%
    23:00 +6°C° 0 mm 1 m/S 748 mmHg 73%

    26 September, Donnerstag

    Zeit Temperatur Niederschläge Wind Luftdruck Luftfeuchtigkeit
    00:00 +6°C° 0 mm 1 m/S 748 mmHg 74%
    01:00 +6°C° 0 mm 1 m/S 748 mmHg 75%
    02:00 +6°C° 0 mm 1 m/S 749 mmHg 76%
    03:00 +5°C° 0 mm 2 m/S 749 mmHg 77%
    04:00 +5°C° 0 mm 1 m/S 749 mmHg 80%
    05:00 +5°C° 0 mm 1 m/S 749 mmHg 82%
    06:00 +4°C° 0 mm 1 m/S 749 mmHg 85%
    07:00 +6°C° 0 mm 1 m/S 749 mmHg 81%
    08:00 +7°C° 0 mm 1 m/S 749 mmHg 76%
    09:00 +8°C° 0 mm 1 m/S 749 mmHg 72%
    10:00 +9°C° 0 mm 1 m/S 749 mmHg 66%
    11:00 +10°C° 0 mm 1 m/S 749 mmHg 60%
    12:00 +11°C° 0 mm 1 m/S 749 mmHg 55%
    13:00 +11°C° 0 mm 1 m/S 749 mmHg 53%
    14:00 +11°C° 0 mm 1 m/S 748 mmHg 52%
    15:00 +10°C° 0 mm 2 m/S 748 mmHg 51%
    16:00 +11°C° 0 mm 1 m/S 748 mmHg 54%
    17:00 +10°C° 0 mm 1 m/S 748 mmHg 56%
    18:00 +10°C° 0 mm 1 m/S 748 mmHg 59%
    19:00 +9°C° 0 mm 1 m/S 748 mmHg 61%
    20:00 +9°C° 0 mm 1 m/S 748 mmHg 62%
    21:00 +8°C° 0 mm 0 m/S 748 mmHg 63%
    22:00 +8°C° 0 mm 1 m/S 748 mmHg 65%
    23:00 +8°C° 0 mm 1 m/S 748 mmHg 66%

    27 September, Freitag

    Zeit Temperatur Niederschläge Wind Luftdruck Luftfeuchtigkeit
    00:00 +7°C° 0 mm 1 m/S 748 mmHg 68%
    01:00 +6°C° 0 mm 0 m/S 748 mmHg 68%
    02:00 +6°C° 0 mm 0 m/S 748 mmHg 68%
    03:00 +6°C° 0 mm 0 m/S 748 mmHg 68%
    04:00 +5°C° 0 mm 0 m/S 748 mmHg 71%
    05:00 +6°C° 0 mm 1 m/S 748 mmHg 74%
    06:00 +5°C° 0 mm 1 m/S 748 mmHg 77%
    07:00 +6°C° 0 mm 1 m/S 748 mmHg 73%
    08:00 +6°C° 0 mm 2 m/S 748 mmHg 68%
    09:00 +7°C° 0 mm 2 m/S 748 mmHg 64%
    10:00 +8°C° 0 mm 3 m/S 748 mmHg 60%
    11:00 +10°C° 0 mm 3 m/S 748 mmHg 55%
    12:00 +11°C° 0 mm 3 m/S 748 mmHg 51%
    13:00 +11°C° 0 mm 3 m/S 748 mmHg 52%
    14:00 +11°C° 0 mm 4 m/S 748 mmHg 53%
    15:00 +12°C° 0 mm 4 m/S 747 mmHg 54%
    16:00 +11°C° 0 mm 3 m/S 747 mmHg 59%
    17:00 +10°C° 0 mm 3 m/S 748 mmHg 64%
    18:00 +9°C° 0 mm 2 m/S 748 mmHg 70%
    19:00 +9°C° 0 mm 2 m/S 748 mmHg 72%
    20:00 +8°C° 0 mm 2 m/S 748 mmHg 75%
    21:00 +8°C° 0 mm 2 m/S 748 mmHg 77%
    22:00 +7°C° 0 mm 2 m/S 749 mmHg 79%
    23:00 +7°C° 0 mm 2 m/S 749 mmHg 82%

    28 September, Samstag

    Zeit Temperatur Niederschläge Wind Luftdruck Luftfeuchtigkeit
    00:00 +7°C° 0 mm 2 m/S 749 mmHg 84%
    01:00 +7°C° 0 mm 2 m/S 749 mmHg 86%
    02:00 +6°C° 0 mm 2 m/S 749 mmHg 88%
    03:00 +6°C° 0 mm 2 m/S 749 mmHg 89%
    04:00 +6°C° 0 mm 2 m/S 749 mmHg 91%
    05:00 +5°C° 0 mm 2 m/S 750 mmHg 93%
    06:00 +5°C° 0 mm 2 m/S 750 mmHg 94%
    07:00 +6°C° 0 mm 2 m/S 750 mmHg 90%
    08:00 +7°C° 0 mm 2 m/S 750 mmHg 85%
    09:00 +8°C° 0 mm 2 m/S 750 mmHg 81%
    10:00 +10°C° 0 mm 1 m/S 750 mmHg 75%
    11:00 +11°C° 0 mm 1 m/S 751 mmHg 69%
    12:00 +12°C° 0 mm 1 m/S 751 mmHg 64%
    13:00 +13°C° 0 mm 1 m/S 751 mmHg 62%
    14:00 +13°C° 0 mm 2 m/S 750 mmHg 60%
    15:00 +14°C° 0 mm 2 m/S 750 mmHg 59%
    16:00 +13°C° 0 mm 1 m/S 750 mmHg 61%
    17:00 +13°C° 0 mm 1 m/S 750 mmHg 64%
    18:00 +12°C° 0 mm 1 m/S 750 mmHg 67%
    19:00 +12°C° 0 mm 1 m/S 750 mmHg 67%
    20:00 +12°C° 0 mm 1 m/S 750 mmHg 68%
    21:00 +11°C° 0 mm 1 m/S 750 mmHg 68%
    22:00 +10°C° 0 mm 2 m/S 750 mmHg 67%
    23:00 +10°C° 0 mm 2 m/S 750 mmHg 66%
    Mehr zeigen